Simultaneous Nadir Overpasses (SNOs) Predictions

Prediction of SNOs between GOES-14 and NOAA-20 Satellite Orbit:

Table of predicted SNOs for the next 14.0 days since TLE Epoch: 2/26/2022
Index Date Time (GOES-14) GOES-14 Lat,Lon NOAA-20 Lat,Lon Distance(km) Time Diff (sec)
1 02/26/2022 20:14:27 -0.07,-104.38 0.31,-102.73 188.77 80
2 02/28/2022 08:36:17 0.07,-104.60 0.82,-108.01 389.01 80
3 03/01/2022 08:20:13 0.07,-104.60 -0.20,-103.49 127.95 80
4 03/02/2022 20:42:11 -0.07,-104.41 -1.03,-108.78 497.76 80
5 03/03/2022 20:20:47 -0.07,-104.41 -0.01,-104.26 18.23 80
6 03/06/2022 08:23:53 0.07,-104.62 0.17,-105.00 43.95 80
7 03/07/2022 08:07:50 0.07,-104.63 -0.85,-100.47 473.50 80
8 03/08/2022 20:29:47 -0.08,-104.45 -0.37,-105.77 150.74 80
9 03/09/2022 20:08:23 -0.08,-104.45 0.65,-101.25 365.08 80
10 03/11/2022 08:30:13 0.08,-104.63 0.53,-106.52 215.72 80
